[[{"header":{"parameterUnit":"m.s-1","parameterCategory":1,"la1":30.2991,"la2":30.254,"lo1":-89.0895,"lo2":-89.0444,"dy":0.0017,"dx":0.0017,"nx":28,"ny":28,"refTime":"2024-03-29T21:00:00:Z","depth":0,"parameterNumber":2,"parameterNumberName":"U-component_of_WINDS"},"data":[0,0,0,0,0,0,0,0,0,0,0,0,0,0,0,0,0,0,0,0,0,0,0,0,0,0,0,0,0,0,0,0,0,0,0,0,0,0,0,0,0,0,0,0,0,0,0,0,0,0,0,0,0,0,0,0,0,0,-0.3653,-0.3651,0,-0.347,-0.3468,-0.3466,-0.3369,-0.3368,-0.3368,-0.3368,-0.318,-0.3175,-0.317,0,0,0,0,0,0,0,0,0,0,0,0,0,-0.3916,-0.3912,-0.3653,-0.3651,-0.3649,-0.3471,-0.3468,-0.3466,-0.3369,-0.3368,-0.3368,-0.3368,-0.3181,-0.3176,-0.317,0,0,0,0,0,0,0,0,0,0,0,0,0,-0.3775,-0.3911,-0.3654,-0.3579,-0.357,-0.3471,-0.3468,-0.3465,-0.3369,-0.3368,-0.3368,-0.3368,-0.3183,-0.3176,-0.3169,-0.313,0,0,-0.3147,-0.3144,0,0,0,0,0,0,0,0,-0.3783,-0.3765,-0.3592,-0.3584,-0.3574,-0.3442,-0.3492,-0.3353,-0.3369,-0.3445,-0.3368,-0.3368,-0.3267,-0.3253,-0.3219,-0.3122,-0.3114,-0.3146,-0.3142,-0.3139,-0.3137,0,0,0,0,0,0,0,-0.3793,-0.3773,-0.3581,-0.359,-0.3579,-0.3554,-0.3533,-0.3465,-0.336,-0.3438,-0.3431,-0.3411,-0.3262,-0.3227,-0.3214,-0.3111,-0.3147,-0.314,-0.3136,-0.3133,-0.2972,-0.2972,0,0,0,0,0,0,-0.3815,-0.3781,-0.3587,-0.3575,-0.368,-0.3549,-0.3526,-0.3485,-0.336,-0.3341,-0.3411,-0.3407,-0.3239,-0.3223,-0.3207,-0.3153,-0.3139,-0.3132,-0.3128,-0.2971,-0.2972,-0.2972,0,0,0,0,0,0,-0.3821,-0.3798,-0.3594,-0.3676,-0.3648,-0.3545,-0.3499,-0.3481,-0.3445,-0.334,-0.3321,-0.3394,-0.3238,-0.3218,-0.315,-0.3146,-0.3129,-0.3122,-0.2971,-0.2972,-0.2972,-0.3046,0,0,0,0,0,0,-0.3829,-0.3801,-0.3786,-0.3677,-0.3644,-0.3541,-0.3499,-0.3478,-0.3433,-0.3426,-0.3319,-0.3301,-0.3236,-0.3162,-0.3143,-0.3135,-0.3117,-0.2971,-0.2971,-0.2972,-0.3044,-0.3049,-0.3053,0,0,0,0,0,-0.3839,-0.3814,-0.3786,-0.3763,-0.3623,-0.3541,-0.3522,-0.3449,-0.3433,-0.3417,-0.3349,-0.3304,-0.3149,-0.3156,-0.3134,-0.3124,-0.2971,-0.2971,-0.2972,-0.3042,-0.3048,-0.3053,0,0,0,0,0,0,-0.3925,-0.3798,-0.3765,-0.3705,-0.3634,-0.3524,-0.3501,-0.3458,-0.339,-0.3386,-0.3297,-0.3274,-0.3215,-0.3162,-0.3172,-0.308,-0.3056,-0.3051,-0.3116,-0.3121,-0.3126,-0.314,-0.3111,0,0,0,0,0,-0.3937,-0.3881,-0.3773,-0.373,-0.3696,-0.3605,-0.3566,-0.3516,-0.3439,-0.3409,-0.3336,-0.3263,-0.3198,-0.3157,-0.3091,-0.3036,-0.3011,-0.3018,-0.3023,-0.3027,-0.3025,-0.2992,-0.2994,-0.2972,-0.2972,-0.2972,0,0,-0.3961,-0.3885,-0.3855,-0.3745,-0.3685,-0.3628,-0.3581,-0.3523,-0.348,-0.34,-0.3332,-0.3276,-0.3189,-0.3128,-0.3097,-0.3082,-0.3025,-0.3028,-0.3032,-0.3027,-0.2992,-0.2994,-0.2996,-0.2972,-0.2972,-0.2972,0,0,-0.3976,-0.3913,-0.387,-0.381,-0.3719,-0.3659,-0.3649,-0.3545,-0.3505,-0.3436,-0.3374,-0.3322,-0.3212,-0.3152,-0.3107,-0.31,-0.3056,-0.3081,-0.3106,-0.3074,-0.3076,-0.3077,-0.3074,-0.3075,-0.3078,-0.3078,-0.3079,0,-0.4017,-0.393,-0.3853,-0.3799,-0.3753,-0.3678,-0.3633,-0.3579,-0.3472,-0.3441,-0.3426,-0.3286,-0.3221,-0.3145,-0.3144,-0.311,-0.3095,-0.3092,-0.3082,-0.3082,-0.3082,-0.3079,-0.3078,-0.3082,-0.3082,-0.3081,-0.3081,0,-0.3985,-0.3926,-0.3902,-0.3801,-0.3751,-0.3703,-0.3618,-0.3577,-0.3531,-0.3473,-0.3403,-0.3323,-0.324,-0.3218,-0.3172,-0.3135,-0.3129,-0.3099,-0.3073,-0.3089,-0.3084,-0.3082,-0.3087,-0.3086,-0.3085,-0.3084,0,0,-0.405,-0.3906,-0.3899,-0.3852,-0.3746,-0.3698,-0.3646,-0.3565,-0.3532,-0.346,-0.3414,-0.3322,-0.3294,-0.3243,-0.319,-0.3163,-0.3162,-0.3136,-0.3133,-0.3144,-0.3116,-0.3139,-0.3139,-0.3133,-0.3132,-0.3131,-0.3123,0,-0.405,-0.3953,-0.3882,-0.3812,-0.3756,-0.3684,-0.3639,-0.3569,-0.3512,-0.3456,-0.3394,-0.333,-0.3298,-0.3267,-0.3236,-0.3169,-0.3155,-0.3168,-0.3088,-0.3086,-0.3113,-0.3136,-0.316,-0.3157,-0.3121,-0.3121,-0.312,0,-0.4037,-0.3968,-0.3893,-0.3793,-0.3767,-0.3728,-0.3648,-0.3595,-0.3514,-0.3475,-0.3419,-0.3364,-0.3305,-0.3285,-0.3202,-0.3213,-0.3176,-0.3138,-0.3136,-0.3125,-0.3105,-0.3127,-0.3154,-0.3154,-0.3117,-0.3117,-0.3117,0,-0.4092,-0.398,-0.3921,-0.3883,-0.3765,-0.3739,-0.3688,-0.3607,-0.3563,-0.3493,-0.3463,-0.3387,-0.3345,-0.3287,-0.3214,-0.3206,-0.3139,-0.3112,-0.3104,-0.3106,-0.3094,-0.3096,-0.3115,-0.307,-0.307,-0.307,-0.307,0,-0.4099,-0.4056,-0.3944,-0.3907,-0.3857,-0.3775,-0.3728,-0.3671,-0.3599,-0.355,-0.3483,-0.3438,-0.3344,-0.3287,-0.3229,-0.317,-0.3151,-0.3118,-0.3103,-0.3124,-0.3128,-0.3098,-0.3097,-0.307,-0.307,-0.307,-0.307,0,-0.4152,-0.4075,-0.4005,-0.39,-0.3872,-0.384,-0.3749,-0.371,-0.365,-0.3589,-0.357,-0.3475,-0.3406,-0.3326,-0.323,-0.3191,-0.3136,-0.3114,-0.3164,-0.3155,-0.3152,-0.3153,-0.3153,-0.3149,-0.3107,-0.3108,-0.3108,0,-0.4162,-0.4127,-0.4018,-0.3981,-0.3932,-0.3873,-0.3827,-0.3746,-0.3701,-0.3607,-0.358,-0.3505,-0.3441,-0.3333,-0.3255,-0.3181,-0.3157,-0.3162,-0.3145,-0.3168,-0.3157,-0.316,-0.3156,-0.3167,-0.3168,-0.3169,-0.3169,0,-0.4188,-0.4152,-0.409,-0.4014,-0.3962,-0.3898,-0.3831,-0.3805,-0.3709,-0.3663,-0.3591,-0.3541,-0.3443,-0.337,-0.3286,-0.3233,-0.3185,-0.3175,-0.3169,-0.3191,-0.3221,-0.3205,-0.3177,-0.3175,-0.3175,-0.3174,-0.3174,-0.3174,-0.422,-0.4186,-0.4104,-0.4036,-0.3978,-0.3917,-0.3876,-0.3811,-0.375,-0.3664,-0.3619,-0.3548,-0.3467,-0.335,-0.3299,-0.3242,-0.3226,-0.3218,-0.3216,-0.3215,-0.3221,-0.323,-0.3226,-0.3226,-0.3226,-0.3226,-0.3225,0,-0.4243,-0.4186,-0.4125,-0.4035,-0.3982,-0.3942,-0.3866,-0.3824,-0.3762,-0.3691,-0.363,-0.3547,-0.3476,-0.3393,-0.3316,-0.3286,-0.3262,-0.3268,-0.327,-0.3259,-0.324,-0.3252,-0.3289,-0.3289,-0.3289,-0.3289,-0.3289,-0.3289,-0.4249,-0.4189,-0.4143,-0.4053,-0.3996,-0.3927,-0.3887,-0.3831,-0.3774,-0.3685,-0.3625,-0.3572,-0.3495,-0.3412,-0.3345,-0.3322,-0.3297,-0.331,-0.3281,-0.3265,-0.326,-0.3255,-0.3266,-0.3305,-0.3305,-0.3304,-0.3305,-0.3305]},{"header":{"parameterUnit":"m.s-1","parameterCategory":1,"la1":30.2991,"la2":30.254,"lo1":-89.0895,"lo2":-89.0444,"dy":0.0017,"dx":0.0017,"nx":28,"ny":28,"refTime":"2024-03-29T21:00:00:Z","depth":0,"parameterNumber":3,"parameterNumberName":"V-component_of_WINDS"},"data":[0,0,0,0,0,0,0,0,0,0,0,0,0,0,0,0,0,0,0,0,0,0,0,0,0,0,0,0,0,0,0,0,0,0,0,0,0,0,0,0,0,0,0,0,0,0,0,0,0,0,0,0,0,0,0,0,0,0,2.0187,2.0189,0,2.0297,2.0298,2.03,2.0348,2.0348,2.0348,2.0348,2.0454,2.0457,2.046,0,0,0,0,0,0,0,0,0,0,0,0,0,2.0015,2.0018,2.0187,2.0189,2.019,2.0297,2.0299,2.03,2.0348,2.0348,2.0348,2.0348,2.0453,2.0457,2.046,0,0,0,0,0,0,0,0,0,0,0,0,0,2.0103,2.0019,2.0187,2.0227,2.0232,2.0297,2.0299,2.03,2.0348,2.0348,2.0348,2.0348,2.0452,2.0457,2.0461,2.0492,0,0,2.0474,2.0476,0,0,0,0,0,0,0,0,2.0098,2.011,2.022,2.0225,2.023,2.0309,2.0277,2.0364,2.0348,2.0304,2.0348,2.0348,2.0406,2.0414,2.0435,2.0497,2.0502,2.0475,2.0478,2.0479,2.0481,0,0,0,0,0,0,0,2.0092,2.0105,2.0231,2.0222,2.0228,2.0238,2.0251,2.0294,2.0354,2.0308,2.0312,2.0324,2.0408,2.043,2.0438,2.0503,2.0475,2.0479,2.0481,2.0483,2.0597,2.0598,0,0,0,0,0,0,2.008,2.01,2.0227,2.0234,2.0163,2.0241,2.0255,2.0284,2.0354,2.0365,2.0324,2.0326,2.0423,2.0432,2.0442,2.0484,2.0479,2.0484,2.0486,2.0597,2.0597,2.0598,0,0,0,0,0,0,2.0076,2.0091,2.0223,2.0168,2.0186,2.0245,2.0276,2.0286,2.0308,2.0367,2.0377,2.0336,2.0423,2.0435,2.048,2.0488,2.0486,2.049,2.0596,2.0597,2.0597,2.0567,0,0,0,0,0,0,2.0071,2.0089,2.0103,2.0168,2.0188,2.026,2.0277,2.0288,2.0316,2.032,2.038,2.039,2.0424,2.0473,2.0484,2.0494,2.0493,2.0596,2.0597,2.0597,2.0568,2.0567,2.0566,0,0,0,0,0,2.0065,2.0088,2.0103,2.0118,2.0207,2.0261,2.0272,2.0312,2.0317,2.033,2.0368,2.0388,2.0485,2.0477,2.049,2.0501,2.0596,2.0596,2.0597,2.0568,2.0567,2.0566,0,0,0,0,0,0,2.002,2.0098,2.0115,2.0161,2.0204,2.0269,2.0287,2.031,2.0351,2.0352,2.0398,2.0412,2.0452,2.0481,2.0471,2.0536,2.0542,2.0545,2.0515,2.0515,2.0514,2.0506,2.0497,0,0,0,0,0,2.0016,2.0055,2.012,2.0154,2.0175,2.0227,2.0252,2.028,2.0326,2.0344,2.0385,2.0427,2.0467,2.0492,2.0532,2.0572,2.0586,2.0586,2.0585,2.0584,2.0586,2.061,2.0611,2.06,2.06,2.06,0,0,2.0007,2.0054,2.0076,2.0146,2.0183,2.0222,2.0242,2.0282,2.031,2.0349,2.0395,2.0426,2.0476,2.0518,2.0539,2.0544,2.0593,2.0585,2.0584,2.0587,2.0611,2.0612,2.0613,2.0601,2.0601,2.0601,0,0,2.0011,2.0051,2.0084,2.0121,2.0178,2.0213,2.022,2.0283,2.0306,2.0352,2.0383,2.0416,2.0484,2.0519,2.0545,2.0564,2.0584,2.0575,2.057,2.0593,2.0593,2.0594,2.0601,2.0603,2.0577,2.0577,2.0577,0,1.9992,2.0054,2.0098,2.0137,2.0167,2.0206,2.024,2.0272,2.0338,2.0357,2.0362,2.0449,2.0485,2.0537,2.0542,2.0562,2.0572,2.0569,2.059,2.0592,2.0593,2.06,2.0603,2.0576,2.0576,2.0576,2.0576,0,2.0028,2.007,2.009,2.0155,2.0187,2.0222,2.0271,2.0298,2.0323,2.0356,2.0403,2.0449,2.0499,2.0513,2.0536,2.0568,2.057,2.0582,2.0589,2.0592,2.06,2.0603,2.0574,2.0575,2.0575,2.0575,0,0,2.0006,2.0097,2.0104,2.0135,2.02,2.0232,2.0269,2.0321,2.0343,2.0387,2.0419,2.0476,2.0488,2.0518,2.0546,2.0566,2.0578,2.0576,2.0577,2.0575,2.0617,2.0608,2.061,2.0592,2.0593,2.0593,2.0613,0,2.002,2.0091,2.0132,2.0185,2.0224,2.0263,2.0295,2.0338,2.037,2.0407,2.0442,2.0482,2.0495,2.0513,2.0535,2.0572,2.0587,2.0571,2.0621,2.0623,2.0608,2.0614,2.0605,2.0621,2.0616,2.0616,2.0617,0,2.0045,2.0091,2.0148,2.0211,2.0229,2.0257,2.0309,2.0343,2.0392,2.0415,2.0449,2.0477,2.0517,2.0521,2.0576,2.0564,2.0587,2.0608,2.061,2.0616,2.062,2.0621,2.0627,2.0629,2.0622,2.0621,2.0621,0,2.0024,2.01,2.0145,2.017,2.0243,2.0263,2.0294,2.0343,2.0372,2.0416,2.0435,2.0482,2.0507,2.0542,2.0582,2.0581,2.0633,2.064,2.0652,2.0651,2.0661,2.066,2.0671,2.0675,2.0675,2.0675,2.0675,0,2.0035,2.0069,2.0137,2.0164,2.0203,2.025,2.0287,2.0321,2.0365,2.0398,2.0433,2.0463,2.0514,2.055,2.0581,2.0622,2.0633,2.0651,2.0659,2.0649,2.0646,2.0664,2.0665,2.0675,2.0675,2.0675,2.0675,0,2.0019,2.0066,2.0117,2.0184,2.0201,2.0227,2.0283,2.031,2.0345,2.0388,2.04,2.0454,2.0499,2.0542,2.0601,2.0622,2.0663,2.0673,2.0647,2.0651,2.0661,2.066,2.0684,2.069,2.0689,2.0689,2.0689,0,2.0023,2.005,2.012,2.0147,2.0178,2.0219,2.025,2.0297,2.0326,2.0385,2.0405,2.0453,2.0494,2.0563,2.0607,2.0652,2.0664,2.067,2.0671,2.066,2.0665,2.0663,2.0666,2.0668,2.0668,2.0668,2.0668,0,2.0025,2.0048,2.0091,2.0143,2.0179,2.0221,2.0264,2.0283,2.0338,2.0369,2.0417,2.0449,2.0511,2.0558,2.0609,2.0639,2.0662,2.0667,2.0673,2.0662,2.0646,2.0656,2.0645,2.0666,2.0667,2.0667,2.0667,2.0667,2.002,2.0046,2.0101,2.0148,2.0186,2.0226,2.0256,2.0295,2.0337,2.0392,2.0417,2.0465,2.0513,2.0585,2.0615,2.0652,2.0657,2.0665,2.0667,2.0668,2.0666,2.064,2.0661,2.0661,2.0661,2.0661,2.0661,0,2.0025,2.0062,2.0105,2.0166,2.0203,2.0224,2.0274,2.0303,2.0345,2.039,2.043,2.0485,2.0531,2.0578,2.0627,2.0647,2.0659,2.0658,2.0657,2.0664,2.0658,2.0649,2.0648,2.0648,2.0648,2.0648,2.0648,2.0648,2.0032,2.0078,2.0107,2.0173,2.0209,2.0259,2.0285,2.0322,2.0358,2.0418,2.0458,2.0489,2.0535,2.0587,2.063,2.0642,2.0659,2.0655,2.067,2.0664,2.0664,2.0665,2.0657,2.0658,2.0658,2.0674,2.0674,2.0674]}]]